Change the Weather History Date:

Tuesday, March 26, 2013

  Actual Average Record
Temperature  
Mean Temperature -10 °F -  
Max Temperature 3 °F 23 °F 48 °F (1954)
Min Temperature -20 °F -2 °F -29 °F (2004)
Degree Days  
Heating Degree Days 74    
Moisture  
Dew Point -15 °F    
Average Humidity 68    
Maximum Humidity 83    
Minimum Humidity 50    
Precipitation  
Precipitation 0.00 in - - ()
Snow  
Snow 0.00 in - - ()
Snow Depth 12.00 in    
Sea Level Pressure  
Sea Level Pressure 30.08 in    
Wind  
Wind Speed 3 mph (West)    
Max Wind Speed 8 mph    
Max Gust Speed -    
Visibility 9 miles    
Events Snow    
Averages and records for this station are not official NWS values.
T = Trace of Precipitation, MM = Missing Value Source: NWS Daily Summary

Daily Weather History Graph

Daily Weather History Graph

Search for Another Location

Airport or City:

Trip Planner

Search our weather history database for the weather conditions in past years. The results will help you decide how hot, cold, wet, or windy it might be!

Date:

Astronomy

Mar. 26, 2013 Rise Set
Actual Time 7:44 AM AKDT 8:44 PM AKDT
Civil Twilight 6:54 AM AKDT 9:35 PM AKDT
Nautical Twilight 5:50 AM AKDT 10:40 PM AKDT
Astronomical Twilight 4:30 AM AKDT 12:01 AM AKDT
Moon 8:44 PM AKDT 7:10 AM AKDT
Length of Visible Light 14h 41m
Length of Day
12h 59m
Full, 100% of the Moon is Illuminated
Mar 26
Full
Mar 27
Full
Apr 2
Last Quarter
Apr 10
New
Apr 18
First Quarter

Hourly Weather History & Observations

Time (AKDT) Temp. Windchill Dew Point Humidity Pressure Visibility Wind Dir Wind Speed Gust Speed Precip Events Conditions
12:52 AM -2.9 °F -11.2 °F -8.0 °F 79% 29.90 in 10.0 mi West 3.5 mph - N/A   Mostly Cloudy
1:52 AM -2.0 °F -12.2 °F -8.0 °F 76% 29.90 in 4.0 mi West 4.6 mph - N/A Snow Light Snow
2:52 AM -4.0 °F -12.4 °F -9.0 °F 79% 29.92 in 7.0 mi West 3.5 mph - N/A   Overcast
3:52 AM -9.0 °F -18.2 °F -13.0 °F 83% 29.95 in 10.0 mi West 3.5 mph - N/A   Clear
4:52 AM -18.9 °F - -24.0 °F 78% 29.97 in 9.0 mi Calm Calm - N/A   Mostly Cloudy
5:52 AM -20.0 °F - -25.1 °F 78% 29.99 in 10.0 mi Calm Calm - N/A   Overcast
6:52 AM -18.9 °F -29.5 °F -24.0 °F 78% 30.01 in 5.0 mi NNW 3.5 mph - N/A Snow Light Snow
7:02 AM -20.2 °F - -25.6 °F 76% 29.98 in 4.0 mi Calm Calm - N/A Snow Light Snow
7:52 AM -18.9 °F - -25.1 °F 74% 30.03 in 4.0 mi Calm Calm - N/A   Mostly Cloudy
8:52 AM -14.1 °F - -18.9 °F 79% 30.05 in 10.0 mi Calm Calm - N/A   Mostly Cloudy
9:52 AM -9.9 °F - -15.0 °F 78% 30.06 in 10.0 mi Calm Calm - N/A   Mostly Cloudy
10:52 AM -6.0 °F -16.9 °F -11.9 °F 75% 30.08 in 10.0 mi WSW 4.6 mph - N/A   Mostly Cloudy
11:52 AM -2.9 °F -15.0 °F -11.9 °F 65% 30.09 in 10.0 mi WSW 5.8 mph - N/A   Mostly Cloudy
11:59 AM -2.2 °F -15.6 °F -11.2 °F 66% 30.06 in 10.0 mi West 6.9 mph - N/A   Mostly Cloudy
12:20 PM -2.2 °F -14.2 °F -11.2 °F 66% 30.07 in 10.0 mi WSW 5.8 mph - N/A   Partly Cloudy
12:52 PM -2.0 °F -16.6 °F -11.9 °F 63% 30.11 in 10.0 mi WNW 8.1 mph - N/A   Scattered Clouds
1:52 PM -0.0 °F -9.9 °F -11.9 °F 57% 30.12 in 10.0 mi Variable 4.6 mph - N/A   Scattered Clouds
2:52 PM 1.9 °F -9.2 °F -11.0 °F 55% 30.13 in 10.0 mi Variable 5.8 mph - N/A   Scattered Clouds
3:52 PM 1.9 °F -9.2 °F -11.9 °F 52% 30.14 in 10.0 mi West 5.8 mph - N/A   Scattered Clouds
4:52 PM 1.9 °F -10.6 °F -11.0 °F 55% 30.16 in 10.0 mi WSW 6.9 mph - N/A   Mostly Cloudy
5:52 PM 1.9 °F -11.8 °F -11.9 °F 52% 30.17 in 10.0 mi WSW 8.1 mph - N/A   Mostly Cloudy
6:52 PM 1.9 °F -9.2 °F -13.0 °F 50% 30.18 in 10.0 mi West 5.8 mph - N/A   Mostly Cloudy
7:52 PM -0.9 °F -11.0 °F -13.0 °F 57% 30.20 in 10.0 mi West 4.6 mph - N/A   Mostly Cloudy
8:52 PM -2.0 °F -12.2 °F -14.1 °F 57% 30.21 in 10.0 mi West 4.6 mph - N/A   Mostly Cloudy
9:52 PM -2.9 °F - -14.1 °F 59% 30.22 in 10.0 mi Calm Calm - N/A   Mostly Cloudy
10:52 PM -14.1 °F - -20.0 °F 75% 30.23 in 10.0 mi Calm Calm - N/A   Clear
11:52 PM -17.0 °F - -23.1 °F 74% 30.25 in 10.0 mi Calm Calm - N/A   Scattered Clouds